Starlink 32682

operational
NORAD ID: 62196 Int'l Des: 2024-229 Owner: SPXS Country: US Constellation: starlink
LEOCIRCULAR

关于 Starlink 32682

正在加载描述...

实时位置

正在加载3D地球...

即将过境

高度历史

Altitude vs Time

uPlot chart will show altitude changes over time

两行轨道根数

1 62196U 24229E 25303.23911160 .00048388 00000-0 17550-2 0 9990
2 62196 43.0009 254.7561 0001260 274.0905 85.9803 15.27606330 50986
Epoch: Oct 30, 2025 • Age: 17 hours

当前状态

高度 490.8 km
速度 7.62 km/s
星下点 -31.86°S, 171.97°W
发射日期 Dec 4, 2024
运行时间 0.9 years
类型 internet

技术详情

分类 Payload
质量 730.00 kg
干质量 700.00 kg
总质量 730.00 kg
长度 0.30 m
直径 4.10 m
跨度 29.00 m
形状 Box + pan
制造商 SPXS
平台类型 Starlink V2M
阶段状态 In Orbit
所有者/国家 SPXS/US

大型星座

Loading constellations...